Weather History for Caribou, ME

Change the Weather History Date:

Tuesday, October 16, 2012

  Actual Average Record
Temperature  
Mean Temperature 46 °F 43 °F  
Max Temperature 55 °F 52 °F 79 °F (1968)
Min Temperature 36 °F 35 °F 21 °F (2009)
Degree Days  
Heating Degree Days 19 22  
Month to date heating degree days 296 303  
Since 1 July heating degree days 581 770  
Cooling Degree Days 0 0  
Month to date cooling degree days 0 0  
Year to date cooling degree days 279 180  
Moisture  
Dew Point 44 °F    
Average Humidity 88    
Maximum Humidity 93    
Minimum Humidity 83    
Precipitation  
Precipitation 0.48 in 0.11 in 1.81 in (2005)
Month to date precipitation 3.25 1.82  
Year to date precipitation 33.20 29.88  
Snow  
Snow 0.00 in 0.00 in 0.10 in (1959)
Month to date snowfall T 0.3  
Since 1 July snowfall T 0.4  
Since 1 September snowfall T 0.4  
Snow Depth 0.00 in    
Sea Level Pressure  
Sea Level Pressure 29.53 in    
Wind  
Wind Speed 5 mph (West)    
Max Wind Speed 21 mph    
Max Gust Speed 28 mph    
Visibility 8 miles    
Events Rain    
T = Trace of Precipitation, MM = Missing Value Source: NWS Daily Summary

Daily Weather History Graph

Daily Weather History Graph

Search for Another Location

Airport:

Trip Planner

Search our weather history database for the weather conditions in past years. The results will help you decide how hot, cold, wet, or windy it might be!

Date:

Astronomy

Oct. 16, 2012 Rise Set
Actual Time 6:52 AM EDT 5:42 PM EDT
Civil Twilight 6:21 AM EDT 6:12 PM EDT
Nautical Twilight 5:46 AM EDT 6:48 PM EDT
Astronomical Twilight 5:10 AM EDT 7:23 PM EDT
Moon 8:18 AM EDT (10/16) 6:14 PM EDT (10/16)
Length of Visible Light 11h 51m
Length of Day
10h 50m
New Moon, 2% of the Moon is Illuminated
Oct 16
New Moon
Oct 21
First Quarter
Oct 29
Full
Nov 6
Last Quarter
Nov 13
New

Hourly Weather History & Observations

Time (EDT) Temp. Windchill Dew Point Humidity Pressure Visibility Wind Dir Wind Speed Gust Speed Precip Events Conditions
12:30 AM 55.4 °F - 53.6 °F 94% 29.54 in 8.0 mi WNW 8.1 mph - 0.02 in Rain Light Rain
12:37 AM 55.4 °F - 53.6 °F 94% 29.54 in 9.0 mi WNW 6.9 mph - 0.02 in Rain Light Rain
12:54 AM 55.0 °F - 53.1 °F 93% 29.57 in 10.0 mi West 5.8 mph - 0.02 in Rain Light Rain
1:33 AM 53.6 °F - 51.8 °F 94% 29.56 in 10.0 mi SW 3.5 mph - 0.02 in Rain Light Rain
1:54 AM 54.0 °F - 52.0 °F 93% 29.57 in 8.0 mi WSW 3.5 mph - 0.02 in Rain Light Rain
2:54 AM 53.1 °F - 52.0 °F 96% 29.57 in 10.0 mi SW 3.5 mph - 0.02 in   Overcast
3:54 AM 53.1 °F - 51.1 °F 93% 29.55 in 9.0 mi South 3.5 mph - 0.00 in Rain Light Rain
4:54 AM 52.0 °F - 50.0 °F 93% 29.56 in 10.0 mi SW 4.6 mph - 0.00 in   Overcast
5:54 AM 51.1 °F - 46.0 °F 83% 29.55 in 10.0 mi Calm Calm - 0.00 in   Overcast
6:26 AM 50.0 °F - 46.4 °F 87% 29.54 in 10.0 mi WNW 3.5 mph - N/A   Overcast
6:54 AM 48.9 °F - 46.9 °F 93% 29.55 in 7.0 mi Calm Calm - 0.00 in Rain Light Rain
7:05 AM 50.0 °F - 46.4 °F 87% 29.53 in 10.0 mi Calm Calm - 0.00 in   Overcast
8:14 AM 50.0 °F - 44.6 °F 82% 29.54 in 10.0 mi Calm Calm - 0.00 in   Overcast
8:54 AM 48.9 °F - 46.0 °F 90% 29.56 in 3.0 mi Calm Calm - 0.01 in Rain Light Rain
9:54 AM 48.9 °F - 45.0 °F 86% 29.52 in 10.0 mi NW 4.6 mph - 0.00 in Rain Light Rain
10:42 AM 48.2 °F - 46.4 °F 93% 29.51 in 2.5 mi Calm Calm - 0.02 in Rain Light Rain
10:54 AM 48.0 °F - 45.0 °F 89% 29.52 in 3.0 mi NW 6.9 mph - 0.03 in Rain Light Rain
11:54 AM 46.9 °F - 43.0 °F 86% 29.49 in 5.0 mi NNW 6.9 mph - 0.05 in Rain Light Rain
12:54 PM 46.0 °F 43.1 °F 43.0 °F 89% 29.46 in 5.0 mi WNW 5.8 mph - 0.09 in Rain Light Rain
1:07 PM 46.4 °F 44.3 °F 44.6 °F 93% 29.44 in 5.0 mi Variable 4.6 mph - N/A Rain Light Rain
1:54 PM 44.1 °F 39.0 °F 39.9 °F 85% 29.49 in 4.0 mi WSW 9.2 mph - 0.12 in Rain Rain
2:54 PM 44.1 °F 42.5 °F 42.1 °F 93% 29.46 in 8.0 mi SW 3.5 mph - 0.10 in Rain Light Rain
3:43 PM 44.6 °F 41.4 °F 42.8 °F 93% 29.43 in 10.0 mi WSW 5.8 mph - 0.00 in   Overcast
3:51 PM 44.6 °F 40.7 °F 42.8 °F 93% 29.43 in 10.0 mi WSW 6.9 mph - 0.00 in   Overcast
3:54 PM 45.0 °F 41.2 °F 42.1 °F 90% 29.45 in 10.0 mi WSW 6.9 mph - 0.00 in   Overcast
4:10 PM 44.6 °F 43.1 °F 42.8 °F 93% 29.43 in 10.0 mi West 3.5 mph - N/A   Overcast
4:54 PM 45.0 °F 43.5 °F 43.0 °F 93% 29.48 in 9.0 mi West 3.5 mph - 0.00 in Rain Light Rain
5:06 PM 44.6 °F 39.2 °F 42.8 °F 93% 29.46 in 2.5 mi NNW 10.4 mph - 0.00 in Rain Light Rain
5:22 PM 42.8 °F 35.1 °F 39.2 °F 87% 29.48 in 7.0 mi NW 16.1 mph 27.6 mph 0.05 in Rain Light Rain
5:46 PM 42.8 °F 37.0 °F 39.2 °F 87% 29.49 in 10.0 mi NW 10.4 mph - 0.05 in Rain Light Rain
5:54 PM 42.1 °F 36.1 °F 37.9 °F 85% 29.52 in 10.0 mi NW 10.4 mph - 0.05 in   Overcast
6:54 PM 41.0 °F 37.1 °F 37.9 °F 89% 29.56 in 10.0 mi WNW 5.8 mph - N/A   Overcast
7:54 PM 39.9 °F 36.7 °F 37.0 °F 89% 29.59 in 10.0 mi WSW 4.6 mph - N/A   Mostly Cloudy
8:15 PM 39.2 °F 35.0 °F 37.4 °F 93% 29.57 in 10.0 mi West 5.8 mph - N/A   Overcast
8:54 PM 39.0 °F - 37.0 °F 93% 29.61 in 10.0 mi Calm Calm - N/A   Overcast
9:54 PM 39.0 °F 34.0 °F 35.1 °F 86% 29.62 in 10.0 mi West 6.9 mph - N/A   Mostly Cloudy
10:54 PM 37.9 °F 31.5 °F 35.1 °F 89% 29.65 in 10.0 mi WSW 9.2 mph - N/A   Overcast
11:54 PM 37.9 °F 31.5 °F 34.0 °F 86% 29.65 in 10.0 mi West 9.2 mph - N/A   Mostly Cloudy